This is the latest recevied weather packets stored in our database for station/object WD0REW. If no packets are shown the sender has not sent any weather packets the latest 10 day(s).
| Time | Temp. | Humidity | Pressure | Rain* | Wind** | Luminosity | Snow |
|---|---|---|---|---|---|---|---|
| 1777684280 | 12.78° C | 44% | 1018.3 hPa | 0 mm | - | 1 W/m² | - |
| 1777683978 | 13.33° C | 44% | 1018 hPa | 0 mm | - | 1 W/m² | - |
| 1777683674 | 13.89° C | 42% | 1017.9 hPa | 0 mm | - | 3 W/m² | - |
| 1777683372 | 14.44° C | 40% | 1017.9 hPa | 0 mm | - | 4 W/m² | - |
| 1777683070 | 14.44° C | 39% | 1017.8 hPa | 0 mm | - | 6 W/m² | - |
| 1777682765 | 15° C | 36% | 1017.9 hPa | 0 mm | - | 8 W/m² | - |
| 1777682462 | 15° C | 35% | 1017.6 hPa | 0 mm | - | 10 W/m² | - |
| 1777682161 | 15° C | 35% | 1017.3 hPa | 0 mm | - | 12 W/m² | - |
| 1777681857 | 15.56° C | 35% | 1017.4 hPa | 0 mm | - | 17 W/m² | - |
| 1777681553 | 15.56° C | 36% | 1017.2 hPa | 0 mm | - | 21 W/m² | - |
| 1777681250 | 15.56° C | 36% | 1017.2 hPa | 0 mm | - | 22 W/m² | - |
| 1777680949 | 15.56° C | 35% | 1017.2 hPa | 0 mm | - | 23 W/m² | - |
| 1777680645 | 15.56° C | 34% | 1017.2 hPa | 0 mm | - | 23 W/m² | - |
| 1777680343 | 15.56° C | 34% | 1017.1 hPa | 0 mm | - | 24 W/m² | - |
| 1777680040 | 16.11° C | 34% | 1017.1 hPa | 0 mm | - | 27 W/m² | - |
| 1777679736 | 16.11° C | 33% | 1017.2 hPa | 0 mm | - | 31 W/m² | - |
| 1777679432 | 16.11° C | 32% | 1017.2 hPa | 0 mm | - | 32 W/m² | - |
| 1777679127 | 16.11° C | 32% | 1017.4 hPa | 0 mm | - | 30 W/m² | - |
| 1777678826 | 16.11° C | 33% | 1017.2 hPa | 0 mm | - | 28 W/m² | - |
| 1777678524 | 16.11° C | 33% | 1017.4 hPa | 0 mm | - | 27 W/m² | - |
| 1777678220 | 16.11° C | 33% | 1017.4 hPa | 0 mm | - | 27 W/m² | - |
| 1777677916 | 16.11° C | 32% | 1017.3 hPa | 0 mm | - | 27 W/m² | - |
| 1777677614 | 16.11° C | 32% | 1017.3 hPa | 0 mm | - | 28 W/m² | - |
| 1777677312 | 16.67° C | 31% | 1017.4 hPa | 0 mm | - | 30 W/m² | - |
| 1777677010 | 16.67° C | 31% | 1017.2 hPa | 0 mm | - | 30 W/m² | - |
* Rain latest hour (hover to see other rain measurements)
** Current wind speed in m/s (hover to see current wind gust speed)